| Date | Time | Temp. (oF) | Dew Point (oF) | Rel. Hum. (%) | Press. (in.) | Wind Dir. (deg.) | Wind Speed (mph) | Hourly Rainfall (i n.) |
|
|---|---|---|---|---|---|---|---|---|---|
| 1 | 09/02 | 24:00 | 65 | 51 | 62 | 30.29 | 350 | 0 | 0.00 |
| 2 | 09/01 | 23:00 | 66 | 50 | 58 | 30.30 | 350 | 0 | 0.00 |
| 3 | 09/01 | 22:00 | 68 | 46 | 47 | 30.30 | 350 | 0 | 0.00 |
| 4 | 09/01 | 21:00 | 73 | 44 | 37 | 30.30 | 350 | 0 | 0.00 |
| 5 | 09/01 | 20:00 | 75 | 46 | 37 | 30.32 | 350 | 0 | 0.00 |
| 6 | 09/01 | 19:00 | 80 | 47 | 32 | 30.36 | 290 | 1 | 0.00 |
| 7 | 09/01 | 18:00 | 80 | 49 | 35 | 30.35 | 270 | 4 | 0.00 |
| 8 | 09/01 | 17:00 | 80 | 48 | 34 | 30.33 | 20 | 2 | 0.00 |
| 9 | 09/01 | 16:00 | 81 | 49 | 34 | 30.33 | 10 | 4 | 0.00 |
| 10 | 09/01 | 15:00 | 80 | 49 | 35 | 30.33 | 50 | 1 | 0.00 |
| 11 | 09/01 | 14:00 | 79 | 49 | 36 | 30.32 | 50 | 4 | 0.00 |
| 12 | 09/01 | 13:00 | 76 | 46 | 36 | 30.33 | 50 | 4 | 0.00 |
| 13 | 09/01 | 12:00 | 76 | 49 | 39 | 30.34 | 310 | 6 | 0.00 |
| 14 | miss | miss | miss | miss | miss | miss | miss | miss | |
| 15 | 08/31 | 17:28 | 76 | 52 | 44 | 30.39 | 90 | 2 | 0.00 |
| 16 | miss | miss | miss | miss | miss | miss | miss | miss | |
| 17 | 08/31 | 17:26 | 76 | 52 | 44 | 30.39 | 90 | 2 | 0.00 |
| 18 | miss | miss | miss | miss | miss | miss | miss | miss | |
| 19 | 08/31 | 17:24 | 76 | 52 | 44 | 30.39 | 90 | 1 | 0.00 |
| 20 | miss | miss | miss | miss | miss | miss | miss | miss | |
| 21 | 08/31 | 17:22 | 76 | 52 | 44 | 30.39 | 90 | 4 | 0.00 |
| 22 | miss | miss | miss | miss | miss | miss | miss | miss | |
| 23 | 08/31 | 17:20 | 76 | 52 | 44 | 30.39 | 90 | 2 | 0.00 |
| 24 | miss | miss | miss | miss | miss | miss | miss | miss | |
| 25 | 08/31 | 17:18 | 76 | 51 | 43 | 30.39 | 90 | 4 | 0.00 |
| 26 | miss | miss | miss | miss | miss | miss | miss | miss | |
| 27 | 08/31 | 17:18 | 76 | 51 | 43 | 30.39 | 90 | 4 | 0.00 |
| 28 | miss | miss | miss | miss | miss | miss | miss | miss | |
| 29 | 08/31 | 17:18 | 76 | 51 | 43 | 30.39 | 90 | 4 | 0.00 |
| 30 | miss | miss | miss | miss | miss | miss | miss | miss | |
| 31 | 08/31 | 17:18 | 76 | 51 | 43 | 30.39 | 90 | 4 | 0.00 |
| 32 | 08/31 | 17:00 | 76 | 51 | 43 | 30.40 | 40 | 0 | 0.00 |
| 33 | 08/31 | 16:00 | 76 | 50 | 41 | 30.40 | 50 | 4 | 0.00 |
| 34 | 08/31 | 15:00 | 77 | 51 | 42 | 30.42 | 10 | 7 | 0.00 |
| 35 | 08/31 | 14:00 | 76 | 51 | 43 | 30.43 | 270 | 6 | 0.00 |
| 36 | 08/31 | 13:00 | 75 | 52 | 45 | 30.42 | 60 | 2 | 0.00 |
| 37 | 08/31 | 12:00 | 72 | 50 | 47 | 30.42 | 50 | 4 | 0.00 |
| 38 | 08/31 | 11:00 | 71 | 52 | 52 | 30.43 | 50 | 10 | 0.00 |
| 39 | 08/31 | 10:00 | 67 | 51 | 58 | 30.43 | 50 | 2 | 0.00 |
| 40 | 08/31 | 09:00 | 65 | 52 | 63 | 30.42 | 50 | 1 | 0.00 |
| 41 | 08/31 | 08:00 | 63 | 50 | 63 | 30.41 | 10 | 4 | 0.00 |
| 42 | 08/31 | 07:00 | 61 | 51 | 72 | 30.39 | 10 | 0 | 0.00 |
| 43 | 08/31 | 06:00 | 63 | 51 | 65 | 30.38 | 10 | 0 | 0.00 |
| 44 | 08/31 | 05:00 | 63 | 51 | 65 | 30.37 | 350 | 0 | 0.00 |
| 45 | 08/31 | 04:00 | 62 | 51 | 68 | 30.37 | 70 | 1 | 0.00 |
| 46 | 08/31 | 03:00 | 62 | 52 | 72 | 30.37 | 230 | 0 | 0.00 |
| 47 | 08/31 | 02:00 | 63 | 52 | 69 | 30.38 | 230 | 0 | 0.00 |
| 48 | 08/31 | 01:00 | 67 | 52 | 59 | 30.38 | 230 | 0 | 0.00 |
| 49 | 08/31 | 24:00 | 67 | 53 | 61 | 30.37 | 230 | 0 | 0.00 |
| 50 | 08/30 | 23:00 | 67 | 51 | 58 | 30.38 | 230 | 0 | 0.00 |
| 51 | 08/30 | 22:00 | 68 | 50 | 54 | 30.38 | 230 | 0 | 0.00 |
| 52 | 08/30 | 21:00 | 70 | 49 | 48 | 30.35 | 230 | 0 | 0.00 |
| 53 | 08/30 | 20:00 | 71 | 47 | 43 | 30.35 | 230 | 1 | 0.00 |
| 54 | 08/30 | 19:00 | 75 | 48 | 39 | 30.36 | 290 | 4 | 0.00 |
| 55 | 08/30 | 18:00 | 75 | 48 | 39 | 30.36 | 10 | 2 | 0.00 |
| 56 | 08/30 | 17:00 | 74 | 46 | 38 | 30.33 | 50 | 1 | 0.00 |
| 57 | 08/30 | 16:00 | 74 | 47 | 39 | 30.31 | 360 | 9 | 0.00 |
| 58 | 08/30 | 15:00 | 73 | 47 | 41 | 30.34 | 50 | 4 | 0.00 |
| 59 | 08/30 | 14:00 | 72 | 47 | 42 | 30.34 | 30 | 6 | 0.00 |
| 60 | 08/30 | 13:00 | 70 | 46 | 43 | 30.35 | 50 | 4 | 0.00 |
| 61 | 08/30 | 12:00 | 70 | 49 | 48 | 30.37 | 50 | 4 | 0.00 |
| 62 | 08/30 | 11:00 | 67 | 49 | 54 | 30.36 | 130 | 4 | 0.00 |
| 63 | 08/30 | 10:00 | 65 | 49 | 57 | 30.35 | 70 | 2 | 0.00 |
| 64 | 08/30 | 09:00 | 63 | 47 | 58 | 30.34 | 30 | 4 | 0.00 |
| 65 | 08/30 | 08:00 | 60 | 46 | 62 | 30.33 | 10 | 4 | 0.00 |
| 66 | 08/30 | 07:00 | 61 | 46 | 59 | 30.32 | 350 | 1 | 0.00 |
| 67 | 08/30 | 06:00 | 60 | 47 | 64 | 30.29 | 10 | 1 | 0.00 |